Year,Month,Day,Hour,Minute,Value (Times are PST for temperature in C)
2016,04,16,00,00,7.20
2016,04,16,00,01,7.30
2016,04,16,00,02,7.30
2016,04,16,00,03,7.30
2016,04,16,00,04,7.30
2016,04,16,00,05,7.30
2016,04,16,00,06,7.30
2016,04,16,00,07,7.30
2016,04,16,00,08,7.30
2016,04,16,00,09,7.30
2016,04,16,00,10,7.30
2016,04,16,00,11,7.30
2016,04,16,00,12,7.30
2016,04,16,00,13,7.30
2016,04,16,00,14,7.40
2016,04,16,00,15,7.40
2016,04,16,00,16,7.40
2016,04,16,00,17,7.40
2016,04,16,00,18,7.50
2016,04,16,00,19,7.50
2016,04,16,00,20,7.50
2016,04,16,00,21,7.50
2016,04,16,00,22,7.50
2016,04,16,00,23,7.50
2016,04,16,00,24,7.50
2016,04,16,00,25,7.40
2016,04,16,00,26,7.50
2016,04,16,00,27,7.50
2016,04,16,00,28,7.50
2016,04,16,00,29,7.40
2016,04,16,00,30,7.40
2016,04,16,00,31,7.40
2016,04,16,00,32,7.40
2016,04,16,00,33,7.30
2016,04,16,00,34,7.30
2016,04,16,00,35,7.30
2016,04,16,00,36,7.30
2016,04,16,00,37,7.30
2016,04,16,00,38,7.30
2016,04,16,00,39,7.30
2016,04,16,00,40,7.30
2016,04,16,00,41,7.30
2016,04,16,00,42,7.30
2016,04,16,00,43,7.30
2016,04,16,00,44,7.30
2016,04,16,00,45,7.30
2016,04,16,00,46,7.30
2016,04,16,00,47,7.30
2016,04,16,00,48,7.30
2016,04,16,00,49,7.30
2016,04,16,00,50,7.30
2016,04,16,00,51,7.30
2016,04,16,00,52,7.20
2016,04,16,00,53,7.20
2016,04,16,00,54,7.20
2016,04,16,00,55,7.20
2016,04,16,00,56,7.20
2016,04,16,00,57,7.20
2016,04,16,00,58,7.20
2016,04,16,00,59,7.20
2016,04,16,01,00,7.20
2016,04,16,01,01,7.30
2016,04,16,01,02,7.30
2016,04,16,01,03,7.30
2016,04,16,01,04,7.30
2016,04,16,01,05,7.30
2016,04,16,01,06,7.30
2016,04,16,01,07,7.30
2016,04,16,01,08,7.30
2016,04,16,01,09,7.30
2016,04,16,01,10,7.30
2016,04,16,01,11,7.30
2016,04,16,01,12,7.30
2016,04,16,01,13,7.30
2016,04,16,01,14,7.20
2016,04,16,01,15,7.20
2016,04,16,01,16,7.20
2016,04,16,01,17,7.20
2016,04,16,01,18,7.20
2016,04,16,01,19,7.20
2016,04,16,01,20,7.10
2016,04,16,01,21,7.10
2016,04,16,01,22,7.10
2016,04,16,01,23,7.10
2016,04,16,01,24,7.10
2016,04,16,01,25,7.00
2016,04,16,01,26,7.00
2016,04,16,01,27,7.00
2016,04,16,01,28,7.00
2016,04,16,01,29,7.00
2016,04,16,01,30,7.00
2016,04,16,01,31,7.00
2016,04,16,01,32,7.00
2016,04,16,01,33,7.00
2016,04,16,01,34,7.00
2016,04,16,01,35,7.00
2016,04,16,01,36,7.00
2016,04,16,01,37,7.00
2016,04,16,01,38,7.00
2016,04,16,01,39,7.00
2016,04,16,01,40,7.00
2016,04,16,01,41,7.10
2016,04,16,01,42,7.10
2016,04,16,01,43,7.10
2016,04,16,01,44,7.10
2016,04,16,01,45,7.10
2016,04,16,01,46,7.10
2016,04,16,01,47,7.10
2016,04,16,01,48,7.00
2016,04,16,01,49,7.00
2016,04,16,01,50,6.90
2016,04,16,01,51,6.90
2016,04,16,01,52,6.90
2016,04,16,01,53,6.90
2016,04,16,01,54,6.80
2016,04,16,01,55,6.80
2016,04,16,01,56,6.80
2016,04,16,01,57,6.80
2016,04,16,01,58,6.80
2016,04,16,01,59,6.80
2016,04,16,02,00,6.80
2016,04,16,02,01,6.70
2016,04,16,02,02,6.70
2016,04,16,02,03,6.70
2016,04,16,02,04,6.70
2016,04,16,02,05,6.70
2016,04,16,02,06,6.60
2016,04,16,02,07,6.60
2016,04,16,02,08,6.60
2016,04,16,02,09,6.60
2016,04,16,02,10,6.60
2016,04,16,02,11,6.60
2016,04,16,02,12,6.50
2016,04,16,02,13,6.50
2016,04,16,02,14,6.50
2016,04,16,02,15,6.50
2016,04,16,02,16,6.50
2016,04,16,02,17,6.50
2016,04,16,02,18,6.50
2016,04,16,02,19,6.50
2016,04,16,02,20,6.50
2016,04,16,02,21,6.50
2016,04,16,02,22,6.50
2016,04,16,02,23,6.50
2016,04,16,02,24,6.50
2016,04,16,02,25,6.60
2016,04,16,02,26,6.60
2016,04,16,02,27,6.60
2016,04,16,02,28,6.60
2016,04,16,02,29,6.60
2016,04,16,02,30,6.60
2016,04,16,02,31,6.60
2016,04,16,02,32,6.60
2016,04,16,02,33,6.60
2016,04,16,02,34,6.60
2016,04,16,02,35,6.70
2016,04,16,02,36,6.70
2016,04,16,02,37,6.70
2016,04,16,02,38,6.70
2016,04,16,02,39,6.70
2016,04,16,02,40,6.70
2016,04,16,02,41,6.70
2016,04,16,02,42,6.70
2016,04,16,02,43,6.70
2016,04,16,02,44,6.70
2016,04,16,02,45,6.70
2016,04,16,02,46,6.70
2016,04,16,02,47,6.70
2016,04,16,02,48,6.70
2016,04,16,02,49,6.70
2016,04,16,02,50,6.70
2016,04,16,02,51,6.70
2016,04,16,02,52,6.70
2016,04,16,02,53,6.70
2016,04,16,02,54,6.70
2016,04,16,02,55,6.70
2016,04,16,02,56,6.80
2016,04,16,02,57,6.80
2016,04,16,02,58,6.80
2016,04,16,02,59,6.80
2016,04,16,03,00,6.80
2016,04,16,03,01,6.80
2016,04,16,03,02,6.80
2016,04,16,03,03,6.90
2016,04,16,03,04,6.90
2016,04,16,03,05,6.90
2016,04,16,03,06,6.90
2016,04,16,03,07,6.90
2016,04,16,03,08,6.90
2016,04,16,03,09,6.90
2016,04,16,03,10,6.90
2016,04,16,03,11,6.90
2016,04,16,03,12,7.00
2016,04,16,03,13,7.00
2016,04,16,03,14,7.00
2016,04,16,03,15,7.00
2016,04,16,03,16,7.00
2016,04,16,03,17,7.10
2016,04,16,03,18,7.10
2016,04,16,03,19,7.10
2016,04,16,03,20,7.10
2016,04,16,03,21,7.10
2016,04,16,03,22,7.10
2016,04,16,03,23,7.10
2016,04,16,03,24,7.10
2016,04,16,03,25,7.10
2016,04,16,03,26,7.10
2016,04,16,03,27,7.20
2016,04,16,03,28,7.20
2016,04,16,03,29,7.20
2016,04,16,03,30,7.20
2016,04,16,03,31,7.20
2016,04,16,03,32,7.20
2016,04,16,03,33,7.20
2016,04,16,03,34,7.20
2016,04,16,03,35,7.20
2016,04,16,03,36,7.20
2016,04,16,03,37,7.20
2016,04,16,03,38,7.20
2016,04,16,03,39,7.20
2016,04,16,03,40,7.20
2016,04,16,03,41,7.20
2016,04,16,03,42,7.20
2016,04,16,03,43,7.20
2016,04,16,03,44,7.20
2016,04,16,03,45,7.20
2016,04,16,03,46,7.20
2016,04,16,03,47,7.20
2016,04,16,03,48,7.20
2016,04,16,03,49,7.20
2016,04,16,03,50,7.20
2016,04,16,03,51,7.20
2016,04,16,03,52,7.20
2016,04,16,03,53,7.20
2016,04,16,03,54,7.20
2016,04,16,03,55,7.20
2016,04,16,03,56,7.20
2016,04,16,03,57,7.20
2016,04,16,03,58,7.20
2016,04,16,03,59,7.20
2016,04,16,04,00,7.10
2016,04,16,04,01,7.10
2016,04,16,04,02,7.10
2016,04,16,04,03,7.10
2016,04,16,04,04,7.10
2016,04,16,04,05,7.10
2016,04,16,04,06,7.10
2016,04,16,04,07,7.10
2016,04,16,04,08,7.10
2016,04,16,04,09,7.10
2016,04,16,04,10,7.10
2016,04,16,04,11,7.10
2016,04,16,04,12,7.10
2016,04,16,04,13,7.10
2016,04,16,04,14,7.10
2016,04,16,04,15,7.10
2016,04,16,04,16,7.10
2016,04,16,04,17,7.10
2016,04,16,04,18,7.10
2016,04,16,04,19,7.10
2016,04,16,04,20,7.10
2016,04,16,04,21,7.10
2016,04,16,04,22,7.10
2016,04,16,04,23,7.10
2016,04,16,04,24,7.10
2016,04,16,04,25,7.10
2016,04,16,04,26,7.10
2016,04,16,04,27,7.00
2016,04,16,04,28,7.00
2016,04,16,04,29,7.00
2016,04,16,04,30,7.10
2016,04,16,04,31,7.10
2016,04,16,04,32,7.10
2016,04,16,04,33,7.10
2016,04,16,04,34,7.10
2016,04,16,04,35,7.10
2016,04,16,04,36,7.10
2016,04,16,04,37,7.00
2016,04,16,04,38,7.00
2016,04,16,04,39,7.00
2016,04,16,04,40,7.00
2016,04,16,04,41,7.00
2016,04,16,04,42,6.90
2016,04,16,04,43,6.90
2016,04,16,04,44,6.90
2016,04,16,04,45,6.90
2016,04,16,04,46,6.90
2016,04,16,04,47,6.90
2016,04,16,04,48,6.80
2016,04,16,04,49,6.80
2016,04,16,04,50,6.80
2016,04,16,04,51,6.80
2016,04,16,04,52,6.80
2016,04,16,04,53,6.80
2016,04,16,04,54,6.80
2016,04,16,04,55,6.80
2016,04,16,04,56,6.90
2016,04,16,04,57,6.90
2016,04,16,04,58,6.90
2016,04,16,04,59,6.90
2016,04,16,05,00,6.90
2016,04,16,05,01,6.80
2016,04,16,05,02,6.80
2016,04,16,05,03,6.80
2016,04,16,05,04,6.80
2016,04,16,05,05,6.80
2016,04,16,05,06,6.80
2016,04,16,05,07,6.70
2016,04,16,05,08,6.70
2016,04,16,05,09,6.70
2016,04,16,05,10,6.70
2016,04,16,05,11,6.60
2016,04,16,05,12,6.60
2016,04,16,05,13,6.60
2016,04,16,05,14,6.60
2016,04,16,05,15,6.60
2016,04,16,05,16,6.60
2016,04,16,05,17,6.60
2016,04,16,05,18,6.60
2016,04,16,05,19,6.60
2016,04,16,05,20,6.60
2016,04,16,05,21,6.60
2016,04,16,05,22,6.60
2016,04,16,05,23,6.60
2016,04,16,05,24,6.60
2016,04,16,05,25,6.60
2016,04,16,05,26,6.60
2016,04,16,05,27,6.60
2016,04,16,05,28,6.60
2016,04,16,05,29,6.60
2016,04,16,05,30,6.70
2016,04,16,05,31,6.60
2016,04,16,05,32,6.70
2016,04,16,05,33,6.60
2016,04,16,05,34,6.70
2016,04,16,05,35,6.70
2016,04,16,05,36,6.70
2016,04,16,05,37,6.70
2016,04,16,05,38,6.70
2016,04,16,05,39,6.70
2016,04,16,05,40,6.70
2016,04,16,05,41,6.70
2016,04,16,05,42,6.70
2016,04,16,05,43,6.70
2016,04,16,05,44,6.70
2016,04,16,05,45,6.70
2016,04,16,05,46,6.70
2016,04,16,05,47,6.70
2016,04,16,05,48,6.70
2016,04,16,05,49,6.70
2016,04,16,05,50,6.70
2016,04,16,05,51,6.70
2016,04,16,05,52,6.70
2016,04,16,05,53,6.80
2016,04,16,05,54,6.80
2016,04,16,05,55,6.80
2016,04,16,05,56,6.80
2016,04,16,05,57,6.80
2016,04,16,05,58,6.90
2016,04,16,05,59,6.90
2016,04,16,06,00,6.90
2016,04,16,06,01,6.90
2016,04,16,06,02,6.90
2016,04,16,06,03,7.00
2016,04,16,06,04,7.00
2016,04,16,06,05,7.00
2016,04,16,06,06,7.00
2016,04,16,06,07,7.10
2016,04,16,06,08,7.10
2016,04,16,06,09,7.10
2016,04,16,06,10,7.10
2016,04,16,06,11,7.20
2016,04,16,06,12,7.20
2016,04,16,06,13,7.20
2016,04,16,06,14,7.20
2016,04,16,06,15,7.20
2016,04,16,06,16,7.20
2016,04,16,06,17,7.20
2016,04,16,06,18,7.20
2016,04,16,06,19,7.20
2016,04,16,06,20,7.20
2016,04,16,06,21,7.20
2016,04,16,06,22,7.20
2016,04,16,06,23,7.20
2016,04,16,06,24,7.20
2016,04,16,06,25,7.20
2016,04,16,06,26,7.20
2016,04,16,06,27,7.20
2016,04,16,06,28,7.20
2016,04,16,06,29,7.20
2016,04,16,06,30,7.20
2016,04,16,06,31,7.20
2016,04,16,06,32,7.20
2016,04,16,06,33,7.30
2016,04,16,06,34,7.30
2016,04,16,06,35,7.30
2016,04,16,06,36,7.30
2016,04,16,06,37,7.30
2016,04,16,06,38,7.30
2016,04,16,06,39,7.40
2016,04,16,06,40,7.40
2016,04,16,06,41,7.40
2016,04,16,06,42,7.40
2016,04,16,06,43,7.40
2016,04,16,06,44,7.40
2016,04,16,06,45,7.40
2016,04,16,06,46,7.40
2016,04,16,06,47,7.40
2016,04,16,06,48,7.40
2016,04,16,06,49,7.40
2016,04,16,06,50,7.40
2016,04,16,06,51,7.40
2016,04,16,06,52,7.40
2016,04,16,06,53,7.50
2016,04,16,06,54,7.50
2016,04,16,06,55,7.50
2016,04,16,06,56,7.50
2016,04,16,06,57,7.60
2016,04,16,06,58,7.60
2016,04,16,06,59,7.60
2016,04,16,07,00,7.60
2016,04,16,07,01,7.60
2016,04,16,07,02,7.70
2016,04,16,07,03,7.70
2016,04,16,07,04,7.70
2016,04,16,07,05,7.70
2016,04,16,07,06,7.70
2016,04,16,07,07,7.80
2016,04,16,07,08,7.80
2016,04,16,07,09,7.80
2016,04,16,07,10,7.80
2016,04,16,07,11,7.80
2016,04,16,07,12,7.80
2016,04,16,07,13,7.80
2016,04,16,07,14,7.90
2016,04,16,07,15,7.90
2016,04,16,07,16,7.90
2016,04,16,07,17,7.90
2016,04,16,07,18,7.90
2016,04,16,07,19,7.90
2016,04,16,07,20,8.00
2016,04,16,07,21,8.00
2016,04,16,07,22,8.00
2016,04,16,07,23,8.00
2016,04,16,07,24,8.00
2016,04,16,07,25,8.10
2016,04,16,07,26,8.10
2016,04,16,07,27,8.10
2016,04,16,07,28,8.10
2016,04,16,07,29,8.10
2016,04,16,07,30,8.10
2016,04,16,07,31,8.10
2016,04,16,07,32,8.20
2016,04,16,07,33,8.20
2016,04,16,07,34,8.20
2016,04,16,07,35,8.20
2016,04,16,07,36,8.30
2016,04,16,07,37,8.30
2016,04,16,07,38,8.30
2016,04,16,07,39,8.30
2016,04,16,07,40,8.30
2016,04,16,07,41,8.40
2016,04,16,07,42,8.40
2016,04,16,07,43,8.50
2016,04,16,07,44,8.50
2016,04,16,07,45,8.60
2016,04,16,07,46,8.60
2016,04,16,07,47,8.70
2016,04,16,07,48,8.70
2016,04,16,07,49,8.80
2016,04,16,07,50,8.90
2016,04,16,07,51,8.90
2016,04,16,07,52,9.00
2016,04,16,07,53,9.10
2016,04,16,07,54,9.10
2016,04,16,07,55,9.20
2016,04,16,07,56,9.30
2016,04,16,07,57,9.30
2016,04,16,07,58,9.30
2016,04,16,07,59,9.30
2016,04,16,08,00,9.40
2016,04,16,08,01,9.40
2016,04,16,08,02,9.40
2016,04,16,08,03,9.40
2016,04,16,08,04,9.50
2016,04,16,08,05,9.50
2016,04,16,08,06,9.50
2016,04,16,08,07,9.50
2016,04,16,08,08,9.60
2016,04,16,08,09,9.60
2016,04,16,08,10,9.60
2016,04,16,08,11,9.60
2016,04,16,08,12,9.70
2016,04,16,08,13,9.70
2016,04,16,08,14,9.70
2016,04,16,08,15,9.80
2016,04,16,08,16,9.80
2016,04,16,08,17,9.80
2016,04,16,08,18,9.90
2016,04,16,08,19,9.90
2016,04,16,08,20,9.90
2016,04,16,08,21,10.00
2016,04,16,08,22,10.00
2016,04,16,08,23,10.00
2016,04,16,08,24,10.10
2016,04,16,08,25,10.10
2016,04,16,08,26,10.10
2016,04,16,08,27,10.10
2016,04,16,08,28,10.20
2016,04,16,08,29,10.20
2016,04,16,08,30,10.20
2016,04,16,08,31,10.20
2016,04,16,08,32,10.30
2016,04,16,08,33,10.30
2016,04,16,08,34,10.30
2016,04,16,08,35,10.30
2016,04,16,08,36,10.30
2016,04,16,08,37,10.40
2016,04,16,08,38,10.40
2016,04,16,08,39,10.40
2016,04,16,08,40,10.40
2016,04,16,08,41,10.40
2016,04,16,08,42,10.50
2016,04,16,08,43,10.50
2016,04,16,08,44,10.40
2016,04,16,08,45,10.40
2016,04,16,08,46,10.40
2016,04,16,08,47,10.40
2016,04,16,08,48,10.40
2016,04,16,08,49,10.40
2016,04,16,08,50,10.40
2016,04,16,08,51,10.40
2016,04,16,08,52,10.30
2016,04,16,08,53,10.40
2016,04,16,08,54,10.40
2016,04,16,08,55,10.40
2016,04,16,08,56,10.40
2016,04,16,08,57,10.40
2016,04,16,08,58,10.40
2016,04,16,08,59,10.40
2016,04,16,09,00,10.50
2016,04,16,09,01,10.50
2016,04,16,09,02,10.50
2016,04,16,09,03,10.50
2016,04,16,09,04,10.60
2016,04,16,09,05,10.60
2016,04,16,09,06,10.60
2016,04,16,09,07,10.50
2016,04,16,09,08,10.50
2016,04,16,09,09,10.50
2016,04,16,09,10,10.50
2016,04,16,09,11,10.50
2016,04,16,09,12,10.50
2016,04,16,09,13,10.50
2016,04,16,09,14,10.50
2016,04,16,09,15,10.50
2016,04,16,09,16,10.50
2016,04,16,09,17,10.50
2016,04,16,09,18,10.50
2016,04,16,09,19,10.50
2016,04,16,09,20,10.50
2016,04,16,09,21,10.50
2016,04,16,09,22,10.50
2016,04,16,09,23,10.50
2016,04,16,09,24,10.50
2016,04,16,09,25,10.50
2016,04,16,09,26,10.50
2016,04,16,09,27,10.50
2016,04,16,09,28,10.50
2016,04,16,09,29,10.50
2016,04,16,09,30,10.50
2016,04,16,09,31,10.50
2016,04,16,09,32,10.50
2016,04,16,09,33,10.50
2016,04,16,09,34,10.50
2016,04,16,09,35,10.50
2016,04,16,09,36,10.50
2016,04,16,09,37,10.60
2016,04,16,09,38,10.60
2016,04,16,09,39,10.60
2016,04,16,09,40,10.60
2016,04,16,09,41,10.60
2016,04,16,09,42,10.60
2016,04,16,09,43,10.60
2016,04,16,09,44,10.60
2016,04,16,09,45,10.70
2016,04,16,09,46,10.70
2016,04,16,09,47,10.70
2016,04,16,09,48,10.70
2016,04,16,09,49,10.70
2016,04,16,09,50,10.80
2016,04,16,09,51,10.80
2016,04,16,09,52,10.80
2016,04,16,09,53,10.80
2016,04,16,09,54,10.80
2016,04,16,09,55,10.80
2016,04,16,09,56,10.80
2016,04,16,09,57,10.80
2016,04,16,09,58,10.80
2016,04,16,09,59,10.80
2016,04,16,10,00,10.80
2016,04,16,10,01,10.90
2016,04,16,10,02,10.90
2016,04,16,10,03,10.90
2016,04,16,10,04,11.00
2016,04,16,10,05,11.00
2016,04,16,10,06,11.00
2016,04,16,10,07,11.00
2016,04,16,10,08,11.00
2016,04,16,10,09,11.00
2016,04,16,10,10,11.10
2016,04,16,10,11,11.10
2016,04,16,10,12,11.10
2016,04,16,10,13,11.20
2016,04,16,10,14,11.20
2016,04,16,10,15,11.20
2016,04,16,10,16,11.30
2016,04,16,10,17,11.30
2016,04,16,10,18,11.30
2016,04,16,10,19,11.30
2016,04,16,10,20,11.30
2016,04,16,10,21,11.30
2016,04,16,10,22,11.40
2016,04,16,10,23,11.40
2016,04,16,10,24,11.40
2016,04,16,10,25,11.40
2016,04,16,10,26,11.40
2016,04,16,10,27,11.40
2016,04,16,10,28,11.50
2016,04,16,10,29,11.50
2016,04,16,10,30,11.50
2016,04,16,10,31,11.60
2016,04,16,10,32,11.60
2016,04,16,10,33,11.60
2016,04,16,10,34,11.60
2016,04,16,10,35,11.60
2016,04,16,10,36,11.60
2016,04,16,10,37,11.60
2016,04,16,10,38,11.60
2016,04,16,10,39,11.60
2016,04,16,10,40,11.70
2016,04,16,10,41,11.70
2016,04,16,10,42,11.70
2016,04,16,10,43,11.70
2016,04,16,10,44,11.70
2016,04,16,10,45,11.70
2016,04,16,10,46,11.70
2016,04,16,10,47,11.70
2016,04,16,10,48,11.70
2016,04,16,10,49,11.70
2016,04,16,10,50,11.70
2016,04,16,10,51,11.70
2016,04,16,10,52,11.70
2016,04,16,10,53,11.80
2016,04,16,10,54,11.80
2016,04,16,10,55,11.80
2016,04,16,10,56,11.80
2016,04,16,10,57,11.90
2016,04,16,10,58,11.90
2016,04,16,10,59,11.90
2016,04,16,11,00,11.90
2016,04,16,11,01,11.90
2016,04,16,11,02,11.90
2016,04,16,11,03,11.90
2016,04,16,11,04,11.80
2016,04,16,11,05,11.90
2016,04,16,11,06,11.90
2016,04,16,11,07,12.00
2016,04,16,11,08,12.00
2016,04,16,11,09,12.10
2016,04,16,11,10,12.10
2016,04,16,11,11,12.20
2016,04,16,11,12,12.20
2016,04,16,11,13,12.30
2016,04,16,11,14,12.30
2016,04,16,11,15,12.30
2016,04,16,11,16,12.30
2016,04,16,11,17,12.30
2016,04,16,11,18,12.30
2016,04,16,11,19,12.30
2016,04,16,11,20,12.30
2016,04,16,11,21,12.40
2016,04,16,11,22,12.40
2016,04,16,11,23,12.40
2016,04,16,11,24,12.40
2016,04,16,11,25,12.40
2016,04,16,11,26,12.40
2016,04,16,11,27,12.30
2016,04,16,11,28,12.30
2016,04,16,11,29,12.30
2016,04,16,11,30,12.30
2016,04,16,11,31,12.30
2016,04,16,11,32,12.40
2016,04,16,11,33,12.40
2016,04,16,11,34,12.40
2016,04,16,11,35,12.40
2016,04,16,11,36,12.40
2016,04,16,11,37,12.40
2016,04,16,11,38,12.40
2016,04,16,11,39,12.40
2016,04,16,11,40,12.30
2016,04,16,11,41,12.30
2016,04,16,11,42,12.30
2016,04,16,11,43,12.30
2016,04,16,11,44,12.30
2016,04,16,11,45,12.30
2016,04,16,11,46,12.30
2016,04,16,11,47,12.30
2016,04,16,11,48,12.30
2016,04,16,11,49,12.30
2016,04,16,11,50,12.30
2016,04,16,11,51,12.20
2016,04,16,11,52,12.20
2016,04,16,11,53,12.20
2016,04,16,11,54,12.20
2016,04,16,11,55,12.20
2016,04,16,11,56,12.20
2016,04,16,11,57,12.30
2016,04,16,11,58,12.30
2016,04,16,11,59,12.40
2016,04,16,12,00,12.40
2016,04,16,12,01,12.50
2016,04,16,12,02,12.60
2016,04,16,12,03,12.60
2016,04,16,12,04,12.60
2016,04,16,12,05,12.60
2016,04,16,12,06,12.60
2016,04,16,12,07,12.60
2016,04,16,12,08,12.60
2016,04,16,12,09,12.60
2016,04,16,12,10,12.50
2016,04,16,12,11,12.50
2016,04,16,12,12,12.50
2016,04,16,12,13,12.50
2016,04,16,12,14,12.50
2016,04,16,12,15,12.50
2016,04,16,12,16,12.50
2016,04,16,12,17,12.50
2016,04,16,12,18,12.60
2016,04,16,12,19,12.70
2016,04,16,12,20,12.70
2016,04,16,12,21,12.80
2016,04,16,12,22,12.80
2016,04,16,12,23,12.90
2016,04,16,12,24,12.90
2016,04,16,12,25,12.90
2016,04,16,12,26,12.90
2016,04,16,12,27,12.90
2016,04,16,12,28,12.90
2016,04,16,12,29,13.00
2016,04,16,12,30,13.00
2016,04,16,12,31,13.10
2016,04,16,12,32,13.20
2016,04,16,12,33,13.20
2016,04,16,12,34,13.30
2016,04,16,12,35,13.30
2016,04,16,12,36,13.20
2016,04,16,12,37,13.10
2016,04,16,12,38,13.10
2016,04,16,12,39,13.10
2016,04,16,12,40,13.30
2016,04,16,12,41,13.40
2016,04,16,12,42,13.40
2016,04,16,12,43,13.40
2016,04,16,12,44,13.40
2016,04,16,12,45,13.40
2016,04,16,12,46,13.30
2016,04,16,12,47,13.30
2016,04,16,12,48,13.20
2016,04,16,12,49,13.20
2016,04,16,12,50,13.20
2016,04,16,12,51,13.20
2016,04,16,12,52,13.20
2016,04,16,12,53,13.30
2016,04,16,12,54,13.30
2016,04,16,12,55,13.30
2016,04,16,12,56,13.30
2016,04,16,12,57,13.40
2016,04,16,12,58,13.40
2016,04,16,12,59,13.40
2016,04,16,13,00,13.40
2016,04,16,13,01,13.40
2016,04,16,13,02,13.40
2016,04,16,13,03,13.40
2016,04,16,13,04,13.40
2016,04,16,13,05,13.40
2016,04,16,13,06,13.40
2016,04,16,13,07,13.50
2016,04,16,13,08,13.40
2016,04,16,13,09,13.50
2016,04,16,13,10,13.50
2016,04,16,13,11,13.50
2016,04,16,13,12,13.50
2016,04,16,13,13,13.50
2016,04,16,13,14,13.40
2016,04,16,13,15,13.50
2016,04,16,13,16,13.50
2016,04,16,13,17,13.60
2016,04,16,13,18,13.70
2016,04,16,13,19,13.70
2016,04,16,13,20,13.60
2016,04,16,13,21,13.60
2016,04,16,13,22,13.60
2016,04,16,13,23,13.60
2016,04,16,13,24,13.60
2016,04,16,13,25,13.60
2016,04,16,13,26,13.60
2016,04,16,13,27,13.60
2016,04,16,13,28,13.60
2016,04,16,13,29,13.60
2016,04,16,13,30,13.70
2016,04,16,13,31,13.70
2016,04,16,13,32,13.60
2016,04,16,13,33,13.60
2016,04,16,13,34,13.60
2016,04,16,13,35,13.60
2016,04,16,13,36,13.50
2016,04,16,13,37,13.40
2016,04,16,13,38,13.40
2016,04,16,13,39,13.30
2016,04,16,13,40,13.30
2016,04,16,13,41,13.30
2016,04,16,13,42,13.20
2016,04,16,13,43,13.20
2016,04,16,13,44,13.20
2016,04,16,13,45,13.10
2016,04,16,13,46,13.10
2016,04,16,13,47,13.10
2016,04,16,13,48,13.10
2016,04,16,13,49,13.10
2016,04,16,13,50,13.20
2016,04,16,13,51,13.20
2016,04,16,13,52,13.30
2016,04,16,13,53,13.30
2016,04,16,13,54,13.30
2016,04,16,13,55,13.20
2016,04,16,13,56,13.10
2016,04,16,13,57,13.10
2016,04,16,13,58,13.10
2016,04,16,13,59,13.20
2016,04,16,14,00,13.20
2016,04,16,14,01,13.30
2016,04,16,14,02,13.30
2016,04,16,14,03,13.30
2016,04,16,14,04,13.30
2016,04,16,14,05,13.30
2016,04,16,14,06,13.30
2016,04,16,14,07,13.30
2016,04,16,14,08,13.20
2016,04,16,14,09,13.20
2016,04,16,14,10,13.20
2016,04,16,14,11,13.20
2016,04,16,14,12,13.20
2016,04,16,14,13,13.20
2016,04,16,14,14,13.20
2016,04,16,14,15,13.20
2016,04,16,14,16,13.20
2016,04,16,14,17,13.20
2016,04,16,14,18,13.20
2016,04,16,14,19,13.20
2016,04,16,14,20,13.30
2016,04,16,14,21,13.40
2016,04,16,14,22,13.40
2016,04,16,14,23,13.40
2016,04,16,14,24,13.40
2016,04,16,14,25,13.50
2016,04,16,14,26,13.50
2016,04,16,14,27,13.40
2016,04,16,14,28,13.40
2016,04,16,14,29,13.40
2016,04,16,14,30,13.50
2016,04,16,14,31,13.50
2016,04,16,14,32,13.50
2016,04,16,14,33,13.60
2016,04,16,14,34,13.60
2016,04,16,14,35,13.60
2016,04,16,14,36,13.60
2016,04,16,14,37,13.60
2016,04,16,14,38,13.60
2016,04,16,14,39,13.60
2016,04,16,14,40,13.60
2016,04,16,14,41,13.50
2016,04,16,14,42,13.60
2016,04,16,14,43,13.60
2016,04,16,14,44,13.50
2016,04,16,14,45,13.60
2016,04,16,14,46,13.60
2016,04,16,14,47,13.60
2016,04,16,14,48,13.60
2016,04,16,14,49,13.60
2016,04,16,14,50,13.60
2016,04,16,14,51,13.60
2016,04,16,14,52,13.70
2016,04,16,14,53,13.70
2016,04,16,14,54,13.70
2016,04,16,14,55,13.70
2016,04,16,14,56,13.70
2016,04,16,14,57,13.80
2016,04,16,14,58,13.80
2016,04,16,14,59,13.80
2016,04,16,15,00,13.80
2016,04,16,15,01,13.80
2016,04,16,15,02,13.80
2016,04,16,15,03,13.90
2016,04,16,15,04,14.00
2016,04,16,15,05,14.10
2016,04,16,15,06,14.10
2016,04,16,15,07,14.10
2016,04,16,15,08,14.10
2016,04,16,15,09,14.20
2016,04,16,15,10,14.20
2016,04,16,15,11,14.20
2016,04,16,15,12,14.20
2016,04,16,15,13,14.20
2016,04,16,15,14,14.20
2016,04,16,15,15,14.30
2016,04,16,15,16,14.40
2016,04,16,15,17,14.50
2016,04,16,15,18,14.50
2016,04,16,15,19,14.60
2016,04,16,15,20,14.50
2016,04,16,15,21,14.50
2016,04,16,15,22,14.40
2016,04,16,15,23,14.30
2016,04,16,15,24,14.20
2016,04,16,15,25,14.20
2016,04,16,15,26,14.20
2016,04,16,15,27,14.30
2016,04,16,15,28,14.30
2016,04,16,15,29,14.30
2016,04,16,15,30,14.40
2016,04,16,15,31,14.40
2016,04,16,15,32,14.50
2016,04,16,15,33,14.40
2016,04,16,15,34,14.50
2016,04,16,15,35,14.50
2016,04,16,15,36,14.50
2016,04,16,15,37,14.60
2016,04,16,15,38,14.60
2016,04,16,15,39,14.60
2016,04,16,15,40,14.70
2016,04,16,15,41,14.60
2016,04,16,15,42,14.60
2016,04,16,15,43,14.60
2016,04,16,15,44,14.70
2016,04,16,15,45,14.70
2016,04,16,15,46,14.70
2016,04,16,15,47,14.70
2016,04,16,15,48,14.70
2016,04,16,15,49,14.70
2016,04,16,15,50,14.60
2016,04,16,15,51,14.70
2016,04,16,15,52,14.70
2016,04,16,15,53,14.70
2016,04,16,15,54,14.70
2016,04,16,15,55,14.70
2016,04,16,15,56,14.60
2016,04,16,15,57,14.60
2016,04,16,15,58,14.60
2016,04,16,15,59,14.70
2016,04,16,16,00,14.70
2016,04,16,16,01,14.60
2016,04,16,16,02,14.60
2016,04,16,16,03,14.60
2016,04,16,16,04,14.60
2016,04,16,16,05,14.60
2016,04,16,16,06,14.50
2016,04,16,16,07,14.60
2016,04,16,16,08,14.60
2016,04,16,16,09,14.60
2016,04,16,16,10,14.60
2016,04,16,16,11,14.60
2016,04,16,16,12,14.60
2016,04,16,16,13,14.50
2016,04,16,16,14,14.50
2016,04,16,16,15,14.50
2016,04,16,16,16,14.50
2016,04,16,16,17,14.50
2016,04,16,16,18,14.60
2016,04,16,16,19,14.60
2016,04,16,16,20,14.60
2016,04,16,16,21,14.60
2016,04,16,16,22,14.70
2016,04,16,16,23,14.70
2016,04,16,16,24,14.70
2016,04,16,16,25,14.70
2016,04,16,16,26,14.70
2016,04,16,16,27,14.80
2016,04,16,16,28,14.80
2016,04,16,16,29,14.90
2016,04,16,16,30,14.90
2016,04,16,16,31,14.90
2016,04,16,16,32,14.90
2016,04,16,16,33,14.90
2016,04,16,16,34,14.80
2016,04,16,16,35,14.70
2016,04,16,16,36,14.70
2016,04,16,16,37,14.70
2016,04,16,16,38,14.70
2016,04,16,16,39,14.70
2016,04,16,16,40,14.70
2016,04,16,16,41,14.70
2016,04,16,16,42,14.70
2016,04,16,16,43,14.70
2016,04,16,16,44,14.70
2016,04,16,16,45,14.70
2016,04,16,16,46,14.80
2016,04,16,16,47,14.80
2016,04,16,16,48,14.70
2016,04,16,16,49,14.70
2016,04,16,16,50,14.70
2016,04,16,16,51,14.70
2016,04,16,16,52,14.80
2016,04,16,16,53,14.90
2016,04,16,16,54,14.90
2016,04,16,16,55,14.90
2016,04,16,16,56,14.80
2016,04,16,16,57,14.80
2016,04,16,16,58,14.70
2016,04,16,16,59,14.70
2016,04,16,17,00,14.60
2016,04,16,17,01,14.60
2016,04,16,17,02,14.50
2016,04,16,17,03,14.50
2016,04,16,17,04,14.40
2016,04,16,17,05,14.40
2016,04,16,17,06,14.40
2016,04,16,17,07,14.40
2016,04,16,17,08,14.30
2016,04,16,17,09,14.30
2016,04,16,17,10,14.30
2016,04,16,17,11,14.30
2016,04,16,17,12,14.30
2016,04,16,17,13,14.30
2016,04,16,17,14,14.30
2016,04,16,17,15,14.30
2016,04,16,17,16,14.30
2016,04,16,17,17,14.40
2016,04,16,17,18,14.40
2016,04,16,17,19,14.40
2016,04,16,17,20,14.40
2016,04,16,17,21,14.40
2016,04,16,17,22,14.40
2016,04,16,17,23,14.50
2016,04,16,17,24,14.50
2016,04,16,17,25,14.60
2016,04,16,17,26,14.60
2016,04,16,17,27,14.70
2016,04,16,17,28,14.80
2016,04,16,17,29,14.80
2016,04,16,17,30,14.90
2016,04,16,17,31,15.00
2016,04,16,17,32,15.10
2016,04,16,17,33,15.20
2016,04,16,17,34,15.30
2016,04,16,17,35,15.30
2016,04,16,17,36,15.30
2016,04,16,17,37,15.30
2016,04,16,17,38,15.30
2016,04,16,17,39,15.30
2016,04,16,17,40,15.30
2016,04,16,17,41,15.30